Regional Weather Roundup
Issued by NWS

Home | Current Version | Previous Version | Text Only | Print | Product List | Glossary On
Versions: 1 2 3 4 5 6 7 8 9 10 11 12 13 14 15 16 17 18 19 20 21 22 23 24 25 26 27 28 29 30 31 32 33 34 35 36 37 38 39 40 41 42 43 44 45 46 47 48 49 50
000
ASCA44 KEWX 231020
RWRMX

LATIN AMERICA AND CARIBBEAN REGIONAL WEATHER ROUNDUP
NATIONAL WEATHER SERVICE AUSTIN/SAN ANTONIO TX
500 AM CDT SUN JUL 23 2017

NOTE: "FAIR" INDICATED FEW OR NO CLOUDS BELOW 12,000 FEET WITH NO
SIGNIFICANT WEATHER AND/OR OBSTRUCTIONS TO VISIBILITY.

BAJA CALIFORNIA

CITY           SKY/WX    TMP DP  RH WIND       PRES   REMARKS
S.J. DEL CABO    N/A    N/A N/A N/A MISG        N/A
TIJUANA        CLEAR     64  59  82 CALM      29.90S

NORTHWESTERN MEXICO

CITY           SKY/WX    TMP DP  RH WIND       PRES   REMARKS
DURANGO        CLOUDY    59  59 100 N5        30.25
HERMOSILLO     CLOUDY    86  73  66 CALM      29.86  HX  93

NORTHEASTERN MEXICO

CITY           SKY/WX    TMP DP  RH WIND       PRES   REMARKS
MONCLOVA         N/A    N/A N/A N/A MISG        N/A
MONTERREY      CLEAR     77  66  69 E5        29.89S
REYNOSA        PTCLDY    79  72  78 S7        29.88
CD. VICTORIA     N/A    N/A N/A N/A MISG        N/A

WESTERN MEXICO

CITY           SKY/WX    TMP DP  RH WIND       PRES   REMARKS
AGUASCALIENTES CLEAR     59  54  82 S6        30.25
COLIMA           N/A    N/A N/A N/A MISG        N/A
DEL BAJIO      MOCLDY    61  57  88 CALM      30.28
GUADALAJARA    MOCLDY    63  59  88 S3        30.18
MAZATLAN       CLOUDY    81  77  89 CALM      29.88F
P. VALLARTA    CLOUDY    81  81 100 CALM      29.88F HX  91
URUAPAN          N/A    N/A N/A N/A MISG        N/A
ZACATECAS      CLEAR     57  50  77 S7        30.28S

CENTRAL MEXICO

CITY           SKY/WX    TMP DP  RH WIND       PRES   REMARKS
CUERNAVACA       N/A    N/A N/A N/A MISG        N/A
MEXICO CITY    PTCLDY    57  54  88 CALM      30.30F
MORELIA        MOCLDY    55  55 100 CALM      30.23
POZA RICA        N/A    N/A N/A N/A MISG        N/A
PUEBLA         CLOUDY    52  48  87 N5        30.30
QUERETARO      PTCLDY    57  55  94 CALM      30.29S
S. LUIS POTOSI CLEAR     57  52  82 CALM      30.24S
TOLUCA         PTCLDY    48  46  93 CALM      30.36F FOG

SOUTHERN MEXICO

CITY           SKY/WX    TMP DP  RH WIND       PRES   REMARKS
ACAPULCO       PTCLDY    81  73  78 NE3       29.85F
B. DE HUATULCO   N/A    N/A N/A N/A MISG        N/A
P. ESCONDIDO     N/A    N/A N/A N/A MISG        N/A
VERACRUZ         N/A    N/A N/A N/A MISG        N/A

YUCATAN PENINSULA

CITY           SKY/WX    TMP DP  RH WIND       PRES   REMARKS
CAMPECHE         N/A    N/A N/A N/A MISG        N/A
CANCUN         PTCLDY    81  79  94 NE2       29.96F
CHETUMAL       PTCLDY    82  77  83 CALM      29.91  HX  91
CD. DEL CARMEN   N/A    N/A N/A N/A MISG        N/A
COZUMEL        PTCLDY    79  75  89 E5        29.94F
MERIDA         PTCLDY    77  73  88 E6        29.95F
MINATITLAN       N/A    N/A N/A N/A MISG        N/A
TAPACHULA      CLOUDY    73  72  94 SW3       29.88F
VILLAHERMOSA   PTCLDY    75  72  88 E8        29.89F

CENTRAL AMERICA

CITY           SKY/WX    TMP DP  RH WIND       PRES   REMARKS

CARIBBEAN

CITY           SKY/WX    TMP DP  RH WIND       PRES   REMARKS
CURACAO        PTCLDY    81  75  83 SE9       29.92S
KINGSTON       PTCLDY    82  75  78 N9        29.92S
NASSAU         MOCLDY    82  77  83 CALM      30.04S HX  91
SAN JUAN       PTCLDY    81  79  94 SE3       30.01R
SANTO DOMINGO  PTCLDY    75  73  94 N5        29.97S
ST. CROIX      PTCLDY    81  77  89 NE6       30.02R
ST. KITTS      MOCLDY    82  77  83 NE13      30.00  HX  91
ST. MAARTEN    PTCLDY    82  79  89 E10       30.00S HX  93
ST. THOMAS     CLEAR     82  79  89 E9          N/A  HX  93

$$





USA.gov is the U.S. government's official web portal to all federal, state and local government web resources and services.